Home > Weather > Madison > Past weeks

Flag for U.S.A. Weather for the Past 2 Weeks in Madison, Wisconsin, U.S.A.

Now
17 °F

Scattered clouds.


Feels Like: 1 °F
Forecast: 2 / 17 °F
Wind: 17 mph from Northwest

Location: Dane County Regional-Truax Field

Current Time: Feb 12, 2016 at 3:09:46 PM

Latest Report: Feb 12, 2016 at 1:53 PM


Visibility: 10 mi

Pressure: 30.24 "Hg

Humidity: 42%

Dew point: -2 °F

Location of MadisonLocation

Historic Weather in Madison — Graph

°F

Madison Temperature Yesterday

Maximum temperature yesterday: 18 °F (at 2:53 PM)
Minimum temperature yesterday: 1 °F (at 5:53 AM)
Average temperature yesterday: 10 °F

High & Low Weather Summary for the Past Weeks

 TemperatureHumidityPressure
High42 °F (Jan 30, 2:53 PM)100% (Feb 1, 8:53 AM)30.40 "Hg (Feb 1, 8:53 AM)
Low1 °F (Feb 11, 5:53 AM)35% (Feb 11, 4:53 PM)29.46 "Hg (Feb 3, 4:53 AM)
Average25 °F75%29.95 "Hg
* Reported Jan 28 1:53 PM — Feb 12 1:53 PM, Madison, Weather by CustomWeather, © 2016

Note: Actual official high and low records may vary slightly from our data, if they occured in-between our weather recording intervals... More about our weather records

Advertising

Madison Weather History for the Previous 24 Hours

 ConditionsComfort  
Time TempWeatherWind HumidityBarometerVisibility
1:53 PM
Fri, Feb 12
17 °FScattered clouds.17 mph42%30.24 "Hg10 mi
12:53 PM17 °FScattered clouds.15 mph45%30.23 "Hg10 mi
11:53 AM16 °FScattered clouds.12 mph51%30.24 "Hg10 mi
10:53 AM16 °FPartly sunny.15 mph56%30.23 "Hg10 mi
9:53 AM15 °FLight snow. Partly sunny.15 mph64%30.22 "Hg10 mi
8:53 AM14 °FLight snow. Partly sunny.12 mph67%30.21 "Hg10 mi
7:53 AM14 °FPartly sunny.7 mph71%30.21 "Hg10 mi
6:53 AM14 °FOvercast.10 mph71%30.20 "Hg10 mi
5:53 AM14 °FLight snow. Overcast.8 mph71%30.18 "Hg10 mi
4:53 AM14 °FOvercast.9 mph64%30.17 "Hg10 mi
3:53 AM15 °FMostly cloudy.6 mph56%30.17 "Hg10 mi
2:53 AM15 °FOvercast.3 mph51%30.19 "Hg10 mi
1:53 AM15 °FOvercast.3 mph51%30.20 "Hg10 mi
12:53 AM15 °FOvercast.5 mph53%30.22 "Hg10 mi
11:53 PM
Thu, Feb 11
16 °FOvercast.6 mph51%30.25 "Hg10 mi
10:53 PM16 °FOvercast.6 mph49%30.25 "Hg10 mi
9:53 PM16 °FOvercast.No wind49%30.28 "Hg10 mi
8:53 PM15 °FOvercast.5 mph49%30.29 "Hg10 mi
7:53 PM14 °FOvercast.5 mph53%30.30 "Hg10 mi
6:53 PM15 °FPassing clouds.7 mph49%30.31 "Hg10 mi
5:53 PM15 °FPassing clouds.3 mph49%30.30 "Hg10 mi
4:53 PM18 °FScattered clouds.3 mph35%30.29 "Hg10 mi
Weather by CustomWeather, © 2016

See weather overviewHow to use our weather pages